Estación municipal de Cànoves i Samalús (Vallès Oriental, P.N.del Montseny)

Consulta los datos en tiempo real de la estación municipal de Cànoves i Samalús





Hora UTC 09:55
Temperatura 17.3 ºC
Humedad 73.5 %
Presión 1013.9 hPa
Pluja 0.0 mm
Velocidad viento 2.9 km/h
Dirección viento S
Radiación solar 331.8 W/m²

Webcam

Datos diarios 2026-05-08



Hora UTC (invierno +1h; verano +2h)
Temperatura (ºC) Humedad (%) Presión (hPa) Velocidad viento (km/h) Precipitación (mm) Radiación solar (W/m²)
Hora UTC Aire Humedad Presión Vel. Dir. Vel. Max Dir. Intent. máx 5 min. Rad. Sol.
00:05 11.1 77.3 1012.2 2.4 NW 2.4 WNW 0.0 0.1
00:10 11.0 77.9 1012.1 3.9 NW 6.0 NW 0.0 0.1
00:15 11.0 77.2 1012.1 4.3 NW 9.5 NNW 0.0 0.1
00:20 11.2 77.2 1012.1 3.4 N 5.3 NNW 0.0 0.1
00:25 11.4 77.8 1012.0 3.3 N 7.1 N 0.0 0.1
00:30 11.3 77.1 1012.0 2.1 NNW 3.9 NW 0.0 0.1
00:35 11.2 77.2 1012.0 0.0 NW 1.1 NW 0.0 0.1
00:40 11.1 77.6 1012.0 0.0 NNE 0.0 NNW 0.0 0.1
00:45 11.0 78.6 1012.0 0.5 W 3.2 NW 0.0 0.1
00:50 11.1 79.2 1012.0 2.2 W 6.0 NW 0.0 0.1
00:55 11.2 79.8 1011.9 3.8 NW 6.0 NW 0.0 0.1
01:00 11.3 79.6 1011.8 4.6 NW 8.1 NNW 0.0 0.1
01:05 11.6 78.4 1011.7 4.0 NW 10.9 NNE 0.0 0.1
01:10 11.7 77.6 1011.7 3.9 NW 6.7 NW 0.0 0.1
01:15 11.9 77.2 1011.6 3.8 NNW 7.8 N 0.0 0.1
01:20 11.9 77.1 1011.6 2.7 NW 4.6 NW 0.0 0.1
01:25 11.8 77.0 1011.5 4.1 NW 7.1 NNW 0.0 0.1
01:30 11.8 77.0 1011.5 2.7 NW 4.9 NNW 0.0 0.1
01:35 11.8 78.2 1011.5 2.1 S 6.0 S 0.0 0.1
01:40 11.7 79.0 1011.5 0.0 SSW 1.1 SSW 0.0 0.1
01:45 11.6 80.5 1011.4 0.0 NNE 0.0 SSW 0.0 0.1
01:50 11.3 80.9 1011.4 1.2 W 2.8 W 0.0 0.1
01:55 11.2 81.5 1011.4 0.1 SW 1.8 SW 0.0 0.1
02:00 11.1 82.1 1011.4 0.0 NNE 0.0 WSW 0.0 0.1
02:05 11.0 82.3 1011.3 0.0 NNE 0.0 W 0.0 0.1
02:10 10.9 83.1 1011.3 1.9 SSE 3.9 SE 0.0 0.1
02:15 10.7 83.6 1011.3 1.8 S 3.5 S 0.0 0.1
02:20 10.6 84.3 1011.3 0.3 WSW 2.8 NW 0.0 0.1
02:25 10.7 85.3 1011.3 2.5 NW 4.6 NNW 0.0 0.1
02:30 10.6 85.2 1011.2 2.7 NW 6.4 WNW 0.0 0.1
02:35 10.6 85.0 1011.1 2.4 WNW 4.9 WNW 0.0 0.1
02:40 10.5 84.5 1011.1 2.6 WNW 4.6 WNW 0.0 0.1
02:45 10.3 84.3 1011.1 2.0 SW 3.2 SSW 0.0 0.1
02:50 10.2 83.9 1011.1 0.4 SW 2.5 SSW 0.0 0.1
02:55 10.1 83.4 1011.1 0.2 WSW 1.4 WSW 0.0 0.1
03:00 10.0 83.8 1011.0 0.7 WSW 2.5 WSW 0.0 0.1
03:05 10.0 84.1 1011.1 0.1 WNW 1.8 WSW 0.0 0.1
03:10 9.9 83.7 1011.1 0.5 NW 1.8 NW 0.0 0.1
03:15 9.8 83.3 1011.0 2.9 NW 7.1 NW 0.0 0.1
03:20 9.7 82.4 1011.0 3.4 NNW 8.8 NNW 0.0 0.1
03:25 9.9 82.2 1010.9 0.6 NNW 2.5 NNW 0.0 0.1
03:30 9.6 81.6 1011.0 2.2 SSE 4.9 SSE 0.0 0.1
03:35 9.3 82.6 1011.0 1.3 S 4.2 S 0.0 0.1
03:40 9.2 83.4 1011.1 1.7 N 3.5 N 0.0 0.1
03:45 9.1 84.0 1011.1 3.1 SW 7.4 SSW 0.0 0.1
03:50 9.2 85.0 1011.2 1.7 NNW 3.5 NNW 0.0 0.1
03:55 9.1 84.3 1011.1 1.0 NNW 3.9 NNE 0.0 0.1
04:00 8.9 84.1 1011.1 1.2 NW 3.2 NW 0.0 0.1
04:05 8.8 84.7 1011.1 0.7 NNW 2.8 N 0.0 0.1
04:10 8.6 84.3 1011.2 0.3 WNW 2.5 WNW 0.0 0.1
04:15 8.3 84.3 1011.1 1.5 NNW 5.3 NE 0.0 0.2
04:20 8.3 84.4 1011.2 2.9 NNW 6.7 NNE 0.0 0.3
04:25 8.4 83.1 1011.2 3.4 NNW 6.7 NNW 0.0 0.7
04:30 8.5 81.8 1011.2 4.9 NNW 8.8 NW 0.0 1.4
04:35 8.8 80.5 1011.3 3.3 NNW 6.7 NW 0.0 2.3
04:40 8.9 79.7 1011.4 3.1 N 7.1 N 0.0 3.6
04:45 9.0 79.2 1011.3 2.9 NNW 7.1 NNW 0.0 5.1
04:50 9.0 78.7 1011.4 2.9 NW 4.6 NW 0.0 7.5
04:55 8.9 79.0 1011.4 2.0 NNW 4.6 NNE 0.0 13.7
05:00 9.0 79.9 1011.5 2.9 NNW 5.3 N 0.0 17.3
05:05 9.0 79.1 1011.5 4.4 NW 7.1 WNW 0.0 20.0
05:10 9.2 78.4 1011.5 4.2 NW 7.1 NNW 0.0 24.1
05:15 9.4 77.4 1011.6 4.8 NNW 8.5 NW 0.0 28.7
05:20 9.7 77.4 1011.6 3.1 NNW 6.0 NNE 0.0 33.9
05:25 9.8 76.7 1011.6 2.1 NW 4.2 N 0.0 41.1
05:30 10.0 77.8 1011.7 3.1 NNW 4.6 NNW 0.0 47.4
05:35 10.2 78.0 1011.8 2.8 NNW 4.6 NNW 0.0 53.2
05:40 10.3 76.2 1011.8 3.7 NNW 6.7 NW 0.0 61.5
05:45 10.6 75.8 1011.9 3.3 NNW 6.4 NNE 0.0 59.6
05:50 10.8 75.2 1012.0 3.2 NNW 6.0 NNW 0.0 64.3
05:55 11.0 75.8 1012.1 3.1 NNW 4.6 NNW 0.0 67.7
06:00 11.3 75.2 1012.1 4.6 N 6.7 N 0.0 75.7
06:05 11.6 73.7 1012.1 4.3 NNW 6.4 N 0.0 85.8
06:10 11.9 75.4 1012.1 3.3 NNW 5.3 NNW 0.0 100.1
06:15 12.1 75.0 1012.1 2.1 N 4.6 NNE 0.0 116.6
06:20 12.3 73.2 1012.2 2.5 N 4.9 NNW 0.0 139.9
06:25 12.6 70.3 1012.2 2.1 NNW 4.6 NNW 0.0 162.6
06:30 12.9 68.7 1012.2 2.8 N 6.0 N 0.0 171.6
06:35 13.3 68.6 1012.3 1.4 NNE 5.6 NNE 0.0 185.2
06:40 13.7 69.4 1012.4 2.2 E 4.9 E 0.0 200.5
06:45 14.0 70.4 1012.4 1.9 ESE 3.9 ESE 0.0 199.9
06:50 14.2 71.0 1012.4 0.0 NNE 0.0 SE 0.0 207.1
06:55 14.5 68.8 1012.3 0.8 N 3.2 NNE 0.0 220.7
07:00 14.8 64.2 1012.4 0.9 NE 3.2 E 0.0 320.4
07:05 15.2 63.7 1012.4 0.4 ENE 3.2 E 0.0 309.7
07:10 15.4 64.6 1012.3 0.0 NNE 0.0 N 0.0 363.4
07:15 15.6 64.3 1012.3 1.6 ESE 4.6 ESE 0.0 389.1
07:20 15.9 64.4 1012.4 3.9 SE 9.2 SE 0.0 432.1
07:25 16.2 61.8 1012.4 4.5 ESE 7.1 ESE 0.0 444.4
07:30 16.3 59.5 1012.5 4.1 SE 7.8 E 0.0 383.7
07:35 16.4 63.1 1012.6 6.6 SE 9.9 ESE 0.0 402.6
07:40 16.4 62.1 1012.6 6.6 SE 10.6 ESE 0.0 428.9
07:45 16.4 61.1 1012.7 6.1 SE 11.6 SSE 0.0 508.2
07:50 16.4 62.0 1012.7 6.5 SE 10.9 SE 0.0 463.3
07:55 16.4 63.4 1012.8 5.5 SE 10.2 SE 0.0 470.9
08:00 16.5 63.6 1012.8 5.1 SE 9.2 ESE 0.0 438.3
08:05 16.7 62.5 1012.8 2.8 ESE 5.6 ESE 0.0 419.2
08:10 16.9 60.3 1012.8 2.9 ESE 7.1 ENE 0.0 433.5
08:15 17.0 62.5 1012.9 5.0 SSE 12.7 SSE 0.0 481.7
08:20 16.9 61.8 1012.9 4.7 ESE 9.5 ESE 0.0 463.8
08:25 17.1 61.5 1013.0 4.7 SSE 9.9 ESE 0.0 494.1
08:30 17.0 60.6 1013.0 4.4 S 8.5 S 0.0 556.4
08:35 17.4 61.8 1013.1 4.4 ESE 10.9 ESE 0.0 509.5
08:40 17.5 61.3 1013.1 6.0 SSE 9.5 ESE 0.0 340.8
08:45 17.1 60.8 1013.2 3.4 SSE 8.5 S 0.0 282.2
08:50 17.1 61.0 1013.3 2.7 SSW 7.1 SSE 0.0 284.2
08:55 17.2 64.6 1013.4 4.3 SSE 10.2 SW 0.0 294.2
09:00 17.1 63.1 1013.5 3.2 S 5.6 S 0.0 278.1
09:05 17.1 65.3 1013.6 7.1 SE 10.9 ESE 0.0 274.1
09:10 17.0 67.5 1013.6 6.0 SSE 10.6 SE 0.0 275.3
09:15 17.0 69.0 1013.6 4.9 S 10.9 S 0.0 304.9
09:20 17.0 71.2 1013.6 4.3 S 9.9 S 0.0 361.5
09:25 17.0 73.4 1013.6 6.9 SSE 13.1 S 0.0 332.3
09:30 16.9 74.6 1013.7 7.7 SSE 11.3 SSE 0.0 316.5
09:35 16.8 74.5 1013.8 5.3 S 9.9 SSW 0.0 274.2
09:40 16.9 74.7 1013.9 4.7 S 10.6 SSE 0.0 258.3
09:45 16.8 73.6 1013.9 5.5 SSE 10.9 S 0.0 309.9
09:50 16.9 73.4 1013.9 6.2 S 11.3 S 0.0 368.0
09:55 17.3 73.5 1013.9 2.9 S 8.1 SE 0.0 331.8
Máxima 17.5 85.3 1013.9 7.7 SSE 13.1 S 0.0 556.4
Mínima 8.3 59.5 1010.9
Total 0.0